Regional Weather Roundup
Issued by NWS

Home | Current Version | Previous Version | Text Only | Print | Product List | Glossary Off
Versions: 1 2 3 4 5 6 7 8 9 10 11 12 13 14 15 16 17 18 19 20 21 22 23 24 25 26 27 28 29 30 31 32 33 34 35 36 37 38 39 40 41 42 43 44 45 46 47 48 49 50

000
ASUS43 KFSD 300710
RWRSD

WEATHER ROUNDUP FOR SOUTH DAKOTA
NATIONAL WEATHER SERVICE SIOUX FALLS SD
200 AM CDT SAT MAY 30 2015

NOTE: "FAIR" INDICATES FEW OR NO CLOUDS BELOW 12,000 FEET WITH NO
SIGNIFICANT WEATHER AND/OR OBSTRUCTIONS TO VISIBILITY.


SDZ001>005-009-010-012>017-300800-
NORTHWEST AND NORTH CENTRAL SOUTH DAKOTA

CITY           SKY/WX    TMP DP  RH WIND       PRES   REMARKS
BUFFALO          N/A     40  34  79 SE8       30.22S
FAITH            N/A     41  34  76 E6        30.29F
MOBRIDGE       CLEAR     41  36  82 N8        30.27R
$$

SDZ012>016-024>037-041>051-057-063-072>074-300800-
SOUTHWEST AND SOUTH CENTRAL SOUTH DAKOTA

CITY           SKY/WX    TMP DP  RH WIND       PRES   REMARKS
RAPID CTY ARPT CLEAR     38  35  89 E5        30.30S
PIERRE         CLEAR     40  37  89 N8        30.27S
CUSTER         CLOUDY    39  36  89 CALM      30.29S
ELLSWORTH AFB  CLEAR     42  37  80 SE3       30.29S
PHILIP         CLEAR     37  34  89 CALM      30.30S
PINE RIDGE     CLEAR     35  33  92 E3        30.30S
SPEARFISH        N/A     36  34  93 S3        30.28S
WINNER         FAIR      41  36  82 N8        30.28R
$$

SDZ004>011-016>023-039-040-300800-
NORTHEAST SOUTH DAKOTA

CITY           SKY/WX    TMP DP  RH WIND       PRES   REMARKS
ABERDEEN       MOCLDY    45  36  70 NE10      30.28R
WATERTOWN      PTCLDY    43  35  73 N17G25    30.21R
BROOKINGS      PTCLDY    45  37  76 N16       30.20S
SISSETON         N/A     43  37  79 N18       30.25R
$$

SDZ017-020-022-023-036>040-048>070-300800-
SOUTHEAST SOUTH DAKOTA

CITY           SKY/WX    TMP DP  RH WIND       PRES   REMARKS
SIOUX FALLS    PTCLDY    48  41  76 N10       30.17R
HURON          PTCLDY    42  39  89 N9        30.25R
CHAMBERLAIN    PTCLDY    45  42  89 N6        30.27R
MITCHELL       PTCLDY    46  41  82 N10       30.24R
YANKTON        MOCLDY    48  43  81 NW13G20   30.19S
$$

ABBREVIATIONS USED IN REMARKS
   TC - TEMPERATURE IN CELSIUS
  WCI - WIND CHILL INDEX
   HX - HEAT INDEX
  VSB - VISIBILITY




USA.gov is the U.S. government's official web portal to all federal, state and local government web resources and services.